Time,TemperatureF,DewpointF,PressureIn,WindDirection,WindDirectionDegrees,WindSpeedMPH,WindSpeedGustMPH,Humidity,HourlyPrecipIn,Conditions,Clouds,dailyrainin,SoftwareType,DateUTC
2013-11-14 00:02:00,37.0,19.6,-100.00,SSW,198,0.0,15.0,49,0.00,,,0.00,meteohub,2013-11-14 06:02:00,
2013-11-14 00:07:00,36.9,19.4,-100.00,SSW,200,6.0,15.0,49,0.00,,,0.00,meteohub,2013-11-14 06:07:00,
2013-11-14 00:12:00,36.9,19.4,-100.00,SSW,210,10.0,15.0,49,0.00,,,0.00,meteohub,2013-11-14 06:12:00,
2013-11-14 00:17:00,36.9,19.4,-100.00,SSW,206,7.0,15.0,49,0.00,,,0.00,meteohub,2013-11-14 06:17:00,
2013-11-14 00:22:00,36.9,19.4,-100.00,SSW,211,4.0,15.0,49,0.00,,,0.00,meteohub,2013-11-14 06:22:00,
2013-11-14 00:27:00,36.7,19.8,-100.00,SSW,202,3.0,15.0,50,0.00,,,0.00,meteohub,2013-11-14 06:27:00,
2013-11-14 00:32:00,36.3,19.4,-100.00,South,188,7.0,11.0,50,0.00,,,0.00,meteohub,2013-11-14 06:32:00,
2013-11-14 00:37:00,36.3,19.4,-100.00,SW,215,7.0,12.0,50,0.00,,,0.00,meteohub,2013-11-14 06:37:00,
2013-11-14 00:42:00,36.3,19.9,-100.00,SSW,203,4.0,12.0,51,0.00,,,0.00,meteohub,2013-11-14 06:42:00,
2013-11-14 00:47:00,36.1,19.8,-100.00,SW,219,1.0,12.0,51,0.00,,,0.00,meteohub,2013-11-14 06:47:00,
2013-11-14 00:52:00,36.0,20.1,-100.00,SW,222,6.0,13.0,52,0.00,,,0.00,meteohub,2013-11-14 06:52:00,
2013-11-14 00:57:00,35.8,19.9,-100.00,SSW,199,2.0,13.0,52,0.00,,,0.00,meteohub,2013-11-14 06:57:00,
2013-11-14 01:02:00,35.8,20.3,-100.00,SSW,194,0.0,11.0,53,0.00,,,0.00,meteohub,2013-11-14 07:02:00,
2013-11-14 01:07:00,35.4,19.9,-100.00,South,177,1.0,12.0,53,0.00,,,0.00,meteohub,2013-11-14 07:07:00,
2013-11-14 01:12:00,35.2,20.3,-100.00,South,173,0.0,12.0,54,0.00,,,0.00,meteohub,2013-11-14 07:12:00,
2013-11-14 01:17:00,35.1,20.1,-100.00,South,188,0.0,11.0,54,0.00,,,0.00,meteohub,2013-11-14 07:17:00,
2013-11-14 01:22:00,35.1,20.1,-100.00,South,180,0.0,10.0,54,0.00,,,0.00,meteohub,2013-11-14 07:22:00,
2013-11-14 01:27:00,35.1,20.5,-100.00,SSW,200,0.0,11.0,55,0.00,,,0.00,meteohub,2013-11-14 07:27:00,
2013-11-14 01:32:00,35.1,20.5,-100.00,South,182,0.0,11.0,55,0.00,,,0.00,meteohub,2013-11-14 07:32:00,
2013-11-14 01:37:00,35.1,20.5,-100.00,South,187,5.0,12.0,55,0.00,,,0.00,meteohub,2013-11-14 07:37:00,
2013-11-14 01:43:00,35.1,20.1,-100.00,SSW,206,1.0,12.0,54,0.00,,,0.00,meteohub,2013-11-14 07:43:00,
2013-11-14 01:48:00,35.2,20.3,-100.00,SSW,193,0.0,12.0,54,0.00,,,0.00,meteohub,2013-11-14 07:48:00,
2013-11-14 01:53:00,35.2,20.3,-100.00,South,178,0.0,12.0,54,0.00,,,0.00,meteohub,2013-11-14 07:53:00,
2013-11-14 01:58:00,35.2,20.3,-100.00,South,182,0.0,11.0,54,0.00,,,0.00,meteohub,2013-11-14 07:58:00,
2013-11-14 02:03:00,35.2,20.3,-100.00,SW,223,5.0,11.0,54,0.00,,,0.00,meteohub,2013-11-14 08:03:00,
2013-11-14 02:08:00,35.2,20.3,-100.00,SW,216,1.0,13.0,54,0.00,,,0.00,meteohub,2013-11-14 08:08:00,
2013-11-14 02:13:00,35.2,20.3,-100.00,SSW,192,6.0,13.0,54,0.00,,,0.00,meteohub,2013-11-14 08:13:00,
2013-11-14 02:18:00,35.4,20.5,-100.00,South,189,8.0,13.0,54,0.00,,,0.00,meteohub,2013-11-14 08:18:00,
2013-11-14 02:23:00,35.4,20.5,-100.00,South,172,3.0,13.0,54,0.00,,,0.00,meteohub,2013-11-14 08:23:00,
2013-11-14 02:28:00,35.4,20.5,-100.00,SSW,196,0.0,13.0,54,0.00,,,0.00,meteohub,2013-11-14 08:28:00,
2013-11-14 02:33:00,35.4,20.5,-100.00,South,187,9.0,12.0,54,0.00,,,0.00,meteohub,2013-11-14 08:33:00,
2013-11-14 02:38:00,35.6,20.7,-100.00,SSW,205,5.0,12.0,54,0.00,,,0.00,meteohub,2013-11-14 08:38:00,
2013-11-14 02:43:00,35.6,20.7,-100.00,SSW,210,5.0,13.0,54,0.00,,,0.00,meteohub,2013-11-14 08:43:00,
2013-11-14 02:48:00,35.6,20.7,-100.00,South,179,9.0,13.0,54,0.00,,,0.00,meteohub,2013-11-14 08:48:00,
2013-11-14 02:53:00,35.6,20.7,-100.00,SW,219,5.0,13.0,54,0.00,,,0.00,meteohub,2013-11-14 08:53:00,
2013-11-14 02:58:00,35.6,20.7,-100.00,SSW,210,1.0,12.0,54,0.00,,,0.00,meteohub,2013-11-14 08:58:00,
2013-11-14 03:03:00,35.8,20.8,-100.00,SE,140,0.0,12.0,54,0.00,,,0.00,meteohub,2013-11-14 09:03:00,
2013-11-14 03:08:00,35.8,20.8,-100.00,SSE,161,2.0,12.0,54,0.00,,,0.00,meteohub,2013-11-14 09:08:00,
2013-11-14 03:13:00,36.0,21.0,-100.00,SSE,166,6.0,12.0,54,0.00,,,0.00,meteohub,2013-11-14 09:13:00,
2013-11-14 03:18:00,35.8,20.8,-100.00,SSW,209,1.0,15.0,54,0.00,,,0.00,meteohub,2013-11-14 09:18:00,
2013-11-14 03:23:00,35.8,20.8,-100.00,SW,221,3.0,15.0,54,0.00,,,0.00,meteohub,2013-11-14 09:23:00,
2013-11-14 03:28:00,35.6,21.0,-100.00,SSW,203,1.0,15.0,55,0.00,,,0.00,meteohub,2013-11-14 09:28:00,
2013-11-14 03:33:00,35.4,20.8,-100.00,SSW,194,0.0,15.0,55,0.00,,,0.00,meteohub,2013-11-14 09:33:00,
2013-11-14 03:38:00,35.4,20.8,-100.00,SSE,168,6.0,15.0,55,0.00,,,0.00,meteohub,2013-11-14 09:38:00,
2013-11-14 03:43:00,35.4,20.8,-100.00,SSW,198,11.0,14.0,55,0.00,,,0.00,meteohub,2013-11-14 09:43:00,
2013-11-14 03:48:00,35.2,21.2,-100.00,South,187,1.0,14.0,56,0.00,,,0.00,meteohub,2013-11-14 09:48:00,
2013-11-14 03:53:00,35.2,21.2,-100.00,SSW,213,3.0,13.0,56,0.00,,,0.00,meteohub,2013-11-14 09:53:00,
2013-11-14 03:58:00,35.2,21.2,-100.00,South,190,1.0,13.0,56,0.00,,,0.00,meteohub,2013-11-14 09:58:00,
2013-11-14 04:03:00,35.4,21.2,-100.00,South,179,0.0,11.0,56,0.00,,,0.00,meteohub,2013-11-14 10:03:00,
2013-11-14 04:08:00,35.4,21.2,-100.00,SSW,212,8.0,13.0,56,0.00,,,0.00,meteohub,2013-11-14 10:08:00,
2013-11-14 04:13:00,35.4,21.2,-100.00,SSW,205,0.0,13.0,56,0.00,,,0.00,meteohub,2013-11-14 10:13:00,
2013-11-14 04:18:00,35.4,21.2,-100.00,SE,131,0.0,13.0,56,0.00,,,0.00,meteohub,2013-11-14 10:18:00,
2013-11-14 04:23:00,35.4,21.2,-100.00,SSW,201,6.0,12.0,56,0.00,,,0.00,meteohub,2013-11-14 10:23:00,
2013-11-14 04:28:00,35.4,21.2,-100.00,SW,215,3.0,13.0,56,0.00,,,0.00,meteohub,2013-11-14 10:28:00,
2013-11-14 04:33:00,35.4,21.7,-100.00,SSE,148,0.0,13.0,57,0.00,,,0.00,meteohub,2013-11-14 10:33:00,
2013-11-14 04:38:00,35.2,21.6,-100.00,SSW,211,7.0,13.0,57,0.00,,,0.00,meteohub,2013-11-14 10:38:00,
2013-11-14 04:43:00,35.2,21.6,-100.00,South,178,5.0,14.0,57,0.00,,,0.00,meteohub,2013-11-14 10:43:00,
2013-11-14 04:48:00,35.2,21.6,-100.00,SW,220,5.0,14.0,57,0.00,,,0.00,meteohub,2013-11-14 10:48:00,
2013-11-14 04:53:00,35.2,21.6,-100.00,SSE,166,1.0,14.0,57,0.00,,,0.00,meteohub,2013-11-14 10:53:00,
2013-11-14 04:58:00,35.2,21.6,-100.00,WSW,237,3.0,13.0,57,0.00,,,0.00,meteohub,2013-11-14 10:58:00,
2013-11-14 05:03:00,35.2,21.6,-100.00,SSW,196,6.0,13.0,57,0.00,,,0.00,meteohub,2013-11-14 11:03:00,
2013-11-14 05:08:00,35.1,21.7,-100.00,SSW,195,0.0,13.0,58,0.00,,,0.00,meteohub,2013-11-14 11:08:00,
2013-11-14 05:13:00,35.1,21.7,-100.00,SW,218,7.0,12.0,58,0.00,,,0.00,meteohub,2013-11-14 11:13:00,
2013-11-14 05:18:00,35.1,21.7,-100.00,SSW,198,6.0,11.0,58,0.00,,,0.00,meteohub,2013-11-14 11:18:00,
2013-11-14 05:23:00,34.9,21.6,-100.00,South,181,0.0,11.0,58,0.00,,,0.00,meteohub,2013-11-14 11:23:00,
2013-11-14 05:28:00,34.9,21.6,-100.00,SSE,152,0.0,11.0,58,0.00,,,0.00,meteohub,2013-11-14 11:28:00,
2013-11-14 05:33:00,34.7,21.9,-100.00,SSW,211,5.0,11.0,59,0.00,,,0.00,meteohub,2013-11-14 11:33:00,
2013-11-14 05:38:00,34.7,21.9,-100.00,South,177,2.0,11.0,59,0.00,,,0.00,meteohub,2013-11-14 11:38:00,
2013-11-14 05:43:00,34.5,21.7,-100.00,South,188,0.0,12.0,59,0.00,,,0.00,meteohub,2013-11-14 11:43:00,
2013-11-14 05:48:00,34.3,21.6,-100.00,SSW,199,0.0,13.0,59,0.00,,,0.00,meteohub,2013-11-14 11:48:00,
2013-11-14 05:53:00,34.3,21.6,-100.00,South,176,4.0,13.0,59,0.00,,,0.00,meteohub,2013-11-14 11:53:00,
2013-11-14 05:58:00,34.3,21.6,-100.00,South,180,1.0,13.0,59,0.00,,,0.00,meteohub,2013-11-14 11:58:00,
2013-11-14 06:03:00,34.3,21.6,-100.00,South,183,5.0,11.0,59,0.00,,,0.00,meteohub,2013-11-14 12:03:00,
2013-11-14 06:08:00,34.3,21.9,-100.00,SSE,153,0.0,10.0,60,0.00,,,0.00,meteohub,2013-11-14 12:08:00,
2013-11-14 06:13:00,34.3,21.9,-100.00,South,178,5.0,12.0,60,0.00,,,0.00,meteohub,2013-11-14 12:13:00,
2013-11-14 06:18:00,34.3,21.9,-100.00,SSE,161,0.0,12.0,60,0.00,,,0.00,meteohub,2013-11-14 12:18:00,
2013-11-14 06:23:00,34.2,21.7,-100.00,SSW,192,5.0,12.0,60,0.00,,,0.00,meteohub,2013-11-14 12:23:00,
2013-11-14 06:28:00,34.2,21.7,-100.00,South,184,0.0,12.0,60,0.00,,,0.00,meteohub,2013-11-14 12:28:00,
2013-11-14 06:33:00,34.2,21.7,-100.00,South,178,4.0,11.0,60,0.00,,,0.00,meteohub,2013-11-14 12:33:00,
2013-11-14 06:38:00,34.3,21.9,-100.00,SSW,207,5.0,12.0,60,0.00,,,0.00,meteohub,2013-11-14 12:38:00,
2013-11-14 06:43:00,34.2,21.7,-100.00,SW,215,0.0,13.0,60,0.00,,,0.00,meteohub,2013-11-14 12:43:00,
2013-11-14 06:48:00,34.2,21.7,-100.00,SW,215,6.0,13.0,60,0.00,,,0.00,meteohub,2013-11-14 12:48:00,
2013-11-14 06:53:00,34.3,21.9,-100.00,SW,214,2.0,12.0,60,0.00,,,0.00,meteohub,2013-11-14 12:53:00,
2013-11-14 06:58:00,34.2,22.1,-100.00,SSW,199,0.0,12.0,61,0.00,,,0.00,meteohub,2013-11-14 12:58:00,
2013-11-14 07:03:00,34.0,21.9,-100.00,South,179,5.0,10.0,61,0.00,,,0.00,meteohub,2013-11-14 13:03:00,
2013-11-14 07:08:00,34.0,21.9,-100.00,SSW,199,4.0,12.0,61,0.00,,,0.00,meteohub,2013-11-14 13:08:00,
2013-11-14 07:13:00,34.2,22.5,-100.00,SSW,212,4.0,12.0,62,0.00,,,0.00,meteohub,2013-11-14 13:13:00,
2013-11-14 07:18:00,34.3,22.3,-100.00,SSW,196,6.0,12.0,61,0.00,,,0.00,meteohub,2013-11-14 13:18:00,
2013-11-14 07:23:00,35.1,23.0,-100.00,South,181,0.0,10.0,61,0.00,,,0.00,meteohub,2013-11-14 13:23:00,
2013-11-14 07:28:00,35.6,22.6,-100.00,South,185,3.0,10.0,59,0.00,,,0.00,meteohub,2013-11-14 13:28:00,
2013-11-14 07:33:00,36.1,23.2,-100.00,South,191,1.0,12.0,59,0.00,,,0.00,meteohub,2013-11-14 13:33:00,
2013-11-14 07:38:00,36.5,23.2,-100.00,SSW,212,4.0,12.0,58,0.00,,,0.00,meteohub,2013-11-14 13:38:00,
2013-11-14 07:43:00,36.9,23.5,-100.00,South,190,3.0,12.0,58,0.00,,,0.00,meteohub,2013-11-14 13:43:00,
2013-11-14 07:48:00,37.2,23.4,-100.00,SSW,200,7.0,11.0,57,0.00,,,0.00,meteohub,2013-11-14 13:48:00,
2013-11-14 07:53:00,37.8,23.9,-100.00,SSW,195,5.0,15.0,57,0.00,,,0.00,meteohub,2013-11-14 13:53:00,
2013-11-14 07:58:00,38.1,23.9,-100.00,SSW,199,1.0,15.0,56,0.00,,,0.00,meteohub,2013-11-14 13:58:00,
2013-11-14 08:03:00,38.3,23.5,-100.00,SSW,208,5.0,15.0,55,0.00,,,0.00,meteohub,2013-11-14 14:03:00,
2013-11-14 08:08:00,38.7,23.9,-100.00,SW,226,9.0,15.0,55,0.00,,,0.00,meteohub,2013-11-14 14:08:00,
2013-11-14 08:13:00,39.0,23.7,-100.00,SSW,200,2.0,15.0,54,0.00,,,0.00,meteohub,2013-11-14 14:13:00,
2013-11-14 08:18:00,39.4,24.1,-100.00,SW,228,7.0,18.0,54,0.00,,,0.00,meteohub,2013-11-14 14:18:00,
2013-11-14 08:23:00,39.7,24.1,-100.00,SW,229,2.0,18.0,53,0.00,,,0.00,meteohub,2013-11-14 14:23:00,
2013-11-14 08:28:00,39.9,24.3,-100.00,SW,220,13.0,19.0,53,0.00,,,0.00,meteohub,2013-11-14 14:28:00,
2013-11-14 08:33:00,40.5,24.6,-100.00,SW,217,10.0,19.0,53,0.00,,,0.00,meteohub,2013-11-14 14:33:00,
2013-11-14 08:38:00,40.8,24.6,-100.00,South,182,11.0,20.0,52,0.00,,,0.00,meteohub,2013-11-14 14:38:00,
2013-11-14 08:43:00,41.2,24.8,-100.00,SW,221,10.0,20.0,52,0.00,,,0.00,meteohub,2013-11-14 14:43:00,
2013-11-14 08:47:00,41.5,25.2,-100.00,South,191,9.0,20.0,52,0.00,,,0.00,meteohub,2013-11-14 14:47:00,
2013-11-14 08:52:00,42.1,25.3,-100.00,SSW,206,5.0,19.0,51,0.00,,,0.00,meteohub,2013-11-14 14:52:00,
2013-11-14 08:57:00,42.6,25.7,-100.00,SSW,206,13.0,19.0,51,0.00,,,0.00,meteohub,2013-11-14 14:57:00,
2013-11-14 09:02:00,43.2,25.7,-100.00,SW,215,11.0,19.0,50,0.00,,,0.00,meteohub,2013-11-14 15:02:00,
2013-11-14 09:07:00,43.5,25.7,-100.00,SSW,199,13.0,19.0,49,0.00,,,0.00,meteohub,2013-11-14 15:07:00,
2013-11-14 09:12:00,43.5,25.7,-100.00,SSW,209,11.0,19.0,49,0.00,,,0.00,meteohub,2013-11-14 15:12:00,
2013-11-14 09:17:00,43.5,25.2,-100.00,SW,228,10.0,18.0,48,0.00,,,0.00,meteohub,2013-11-14 15:17:00,
2013-11-14 09:22:00,43.9,25.5,-100.00,SSW,208,10.0,23.0,48,0.00,,,0.00,meteohub,2013-11-14 15:22:00,
2013-11-14 09:27:00,45.0,26.4,-100.00,SSE,157,1.0,23.0,48,0.00,,,0.00,meteohub,2013-11-14 15:27:00,
2013-11-14 09:32:00,45.3,26.2,-100.00,SSW,196,5.0,23.0,47,0.00,,,0.00,meteohub,2013-11-14 15:32:00,
2013-11-14 09:37:00,46.0,26.4,-100.00,SW,228,17.0,22.0,46,0.00,,,0.00,meteohub,2013-11-14 15:37:00,
2013-11-14 09:42:00,46.4,26.2,-100.00,SW,214,4.0,22.0,45,0.00,,,0.00,meteohub,2013-11-14 15:42:00,
2013-11-14 09:47:00,46.2,26.1,-100.00,SSW,203,7.0,19.0,45,0.00,,,0.00,meteohub,2013-11-14 15:47:00,
2013-11-14 09:52:00,46.4,26.2,-100.00,SSW,202,20.0,25.0,45,0.00,,,0.00,meteohub,2013-11-14 15:52:00,
2013-11-14 09:57:00,46.6,25.9,-100.00,SW,215,6.0,26.0,44,0.00,,,0.00,meteohub,2013-11-14 15:57:00,
2013-11-14 10:02:00,46.8,26.1,-100.00,SSW,195,2.0,26.0,44,0.00,,,0.00,meteohub,2013-11-14 16:02:00,
2013-11-14 10:07:00,46.9,26.2,-100.00,SSW,212,12.0,26.0,44,0.00,,,0.00,meteohub,2013-11-14 16:07:00,
2013-11-14 10:12:00,46.9,26.2,-100.00,SW,221,7.0,20.0,44,0.00,,,0.00,meteohub,2013-11-14 16:12:00,
2013-11-14 10:17:00,46.9,26.2,-100.00,SW,223,2.0,19.0,44,0.00,,,0.00,meteohub,2013-11-14 16:17:00,
2013-11-14 10:22:00,47.3,25.9,-100.00,WSW,238,15.0,22.0,43,0.00,,,0.00,meteohub,2013-11-14 16:22:00,
2013-11-14 10:27:00,47.7,26.2,-100.00,SSW,194,12.0,22.0,43,0.00,,,0.00,meteohub,2013-11-14 16:27:00,
2013-11-14 10:32:00,48.0,26.6,-100.00,SSW,211,17.0,21.0,43,0.00,,,0.00,meteohub,2013-11-14 16:32:00,
2013-11-14 10:37:00,48.4,27.0,-100.00,WSW,240,13.0,22.0,43,0.00,,,0.00,meteohub,2013-11-14 16:37:00,
2013-11-14 10:42:00,48.7,26.6,-100.00,SSW,213,11.0,22.0,42,0.00,,,0.00,meteohub,2013-11-14 16:42:00,
2013-11-14 10:47:00,49.1,27.0,-100.00,SW,223,2.0,22.0,42,0.00,,,0.00,meteohub,2013-11-14 16:47:00,
2013-11-14 10:52:00,48.9,26.8,-100.00,SW,236,5.0,19.0,42,0.00,,,0.00,meteohub,2013-11-14 16:52:00,
2013-11-14 10:57:00,49.1,27.0,-100.00,SSW,195,3.0,19.0,42,0.00,,,0.00,meteohub,2013-11-14 16:57:00,
2013-11-14 11:02:00,49.3,27.7,-100.00,SSE,154,2.0,18.0,43,0.00,,,0.00,meteohub,2013-11-14 17:02:00,
2013-11-14 11:07:00,49.8,27.7,-100.00,SW,215,1.0,18.0,42,0.00,,,0.00,meteohub,2013-11-14 17:07:00,
2013-11-14 11:12:00,50.5,27.1,-100.00,South,187,4.0,16.0,40,0.00,,,0.00,meteohub,2013-11-14 17:12:00,
2013-11-14 11:17:00,50.7,27.3,-100.00,SW,223,10.0,19.0,40,0.00,,,0.00,meteohub,2013-11-14 17:17:00,
2013-11-14 11:22:00,50.7,27.3,-100.00,SSW,206,2.0,19.0,40,0.00,,,0.00,meteohub,2013-11-14 17:22:00,
2013-11-14 11:27:00,50.9,27.5,-100.00,South,171,5.0,19.0,40,0.00,,,0.00,meteohub,2013-11-14 17:27:00,
2013-11-14 11:32:00,51.1,27.7,-100.00,SW,225,9.0,22.0,40,0.00,,,0.00,meteohub,2013-11-14 17:32:00,
2013-11-14 11:37:00,51.3,27.1,-100.00,SW,225,14.0,22.0,39,0.00,,,0.00,meteohub,2013-11-14 17:37:00,
2013-11-14 11:42:00,51.4,27.9,-100.00,SSW,211,1.0,22.0,40,0.00,,,0.00,meteohub,2013-11-14 17:42:00,
2013-11-14 11:47:00,51.6,27.5,-100.00,SW,227,14.0,21.0,39,0.00,,,0.00,meteohub,2013-11-14 17:47:00,
2013-11-14 11:52:00,52.2,27.9,-100.00,SSW,210,7.0,22.0,39,0.00,,,0.00,meteohub,2013-11-14 17:52:00,
2013-11-14 11:57:00,53.1,28.0,-100.00,South,173,3.0,22.0,38,0.00,,,0.00,meteohub,2013-11-14 17:57:00,
2013-11-14 12:02:00,52.7,27.1,-100.00,South,178,14.0,22.0,37,0.00,,,0.00,meteohub,2013-11-14 18:02:00,
2013-11-14 12:07:00,52.2,27.3,-100.00,SSW,196,9.0,22.0,38,0.00,,,0.00,meteohub,2013-11-14 18:07:00,
2013-11-14 12:12:00,52.0,27.9,-100.00,SSW,197,5.0,22.0,39,0.00,,,0.00,meteohub,2013-11-14 18:12:00,
2013-11-14 12:17:00,52.3,27.5,-100.00,SW,235,9.0,22.0,38,0.00,,,0.00,meteohub,2013-11-14 18:17:00,
2013-11-14 12:22:00,52.9,28.0,-100.00,SSW,209,5.0,19.0,38,0.00,,,0.00,meteohub,2013-11-14 18:22:00,
2013-11-14 12:27:00,52.9,27.3,-100.00,South,184,1.0,19.0,37,0.00,,,0.00,meteohub,2013-11-14 18:27:00,
2013-11-14 12:32:00,53.2,27.7,-100.00,West,263,1.0,20.0,37,0.00,,,0.00,meteohub,2013-11-14 18:32:00,
2013-11-14 12:37:00,54.0,28.2,-100.00,SW,224,7.0,20.0,37,0.00,,,0.00,meteohub,2013-11-14 18:37:00,
2013-11-14 12:42:00,53.8,27.5,-100.00,South,191,14.0,20.0,36,0.00,,,0.00,meteohub,2013-11-14 18:42:00,
2013-11-14 12:47:00,54.1,27.7,-100.00,WSW,245,11.0,18.0,36,0.00,,,0.00,meteohub,2013-11-14 18:47:00,
2013-11-14 12:52:00,54.1,27.7,-100.00,SSW,202,3.0,18.0,36,0.00,,,0.00,meteohub,2013-11-14 18:52:00,
2013-11-14 12:57:00,54.1,27.7,-100.00,SW,229,4.0,18.0,36,0.00,,,0.00,meteohub,2013-11-14 18:57:00,
2013-11-14 13:03:00,54.1,27.7,-100.00,SW,229,16.0,18.0,36,0.00,,,0.00,meteohub,2013-11-14 19:03:00,
2013-11-14 13:08:00,54.0,27.7,-100.00,WSW,242,9.0,23.0,36,0.00,,,0.00,meteohub,2013-11-14 19:08:00,
2013-11-14 13:13:00,54.5,28.0,-100.00,SW,216,0.0,23.0,36,0.00,,,0.00,meteohub,2013-11-14 19:13:00,
2013-11-14 13:18:00,54.5,27.3,-100.00,SW,225,18.0,23.0,35,0.00,,,0.00,meteohub,2013-11-14 19:18:00,
2013-11-14 13:23:00,54.1,27.1,-100.00,SSW,207,6.0,20.0,35,0.00,,,0.00,meteohub,2013-11-14 19:23:00,
2013-11-14 13:28:00,54.1,27.1,-100.00,SW,228,5.0,20.0,35,0.00,,,0.00,meteohub,2013-11-14 19:28:00,
2013-11-14 13:33:00,54.0,26.2,-100.00,SW,225,12.0,20.0,34,0.00,,,0.00,meteohub,2013-11-14 19:33:00,
2013-11-14 13:38:00,53.4,26.4,-100.00,WSW,240,17.0,22.0,35,0.00,,,0.00,meteohub,2013-11-14 19:38:00,
2013-11-14 13:43:00,53.4,26.4,-100.00,SSW,209,19.0,22.0,35,0.00,,,0.00,meteohub,2013-11-14 19:43:00,
2013-11-14 13:48:00,53.4,27.1,-100.00,SSW,211,6.0,22.0,36,0.00,,,0.00,meteohub,2013-11-14 19:48:00,
2013-11-14 13:53:00,53.2,27.0,-100.00,SSW,206,6.0,19.0,36,0.00,,,0.00,meteohub,2013-11-14 19:53:00,
2013-11-14 13:58:00,53.2,27.0,-100.00,SW,217,10.0,19.0,36,0.00,,,0.00,meteohub,2013-11-14 19:58:00,
2013-11-14 14:03:00,53.1,26.8,-100.00,SSW,205,6.0,19.0,36,0.00,,,0.00,meteohub,2013-11-14 20:03:00,
2013-11-14 14:08:00,53.4,27.1,-100.00,WSW,238,12.0,20.0,36,0.00,,,0.00,meteohub,2013-11-14 20:08:00,
2013-11-14 14:13:00,53.6,27.3,-100.00,SW,227,12.0,20.0,36,0.00,,,0.00,meteohub,2013-11-14 20:13:00,
2013-11-14 14:18:00,53.6,26.6,-100.00,WSW,253,4.0,25.0,35,0.00,,,0.00,meteohub,2013-11-14 20:18:00,
2013-11-14 14:23:00,53.8,27.5,-100.00,SW,221,4.0,25.0,36,0.00,,,0.00,meteohub,2013-11-14 20:23:00,
2013-11-14 14:28:00,54.0,27.7,-100.00,SSW,204,5.0,24.0,36,0.00,,,0.00,meteohub,2013-11-14 20:28:00,
2013-11-14 14:33:00,54.1,27.7,-100.00,SW,220,3.0,24.0,36,0.00,,,0.00,meteohub,2013-11-14 20:33:00,
2013-11-14 14:38:00,54.0,27.7,-100.00,SW,232,4.0,18.0,36,0.00,,,0.00,meteohub,2013-11-14 20:38:00,
2013-11-14 14:43:00,54.0,27.7,-100.00,SW,227,0.0,18.0,36,0.00,,,0.00,meteohub,2013-11-14 20:43:00,
2013-11-14 14:48:00,54.0,27.0,-100.00,SSW,202,13.0,14.0,35,0.00,,,0.00,meteohub,2013-11-14 20:48:00,
2013-11-14 14:53:00,54.0,27.7,-100.00,SSW,209,4.0,21.0,36,0.00,,,0.00,meteohub,2013-11-14 20:53:00,
2013-11-14 14:58:00,54.0,27.0,-100.00,SW,215,4.0,21.0,35,0.00,,,0.00,meteohub,2013-11-14 20:58:00,
2013-11-14 15:03:00,53.4,27.1,-100.00,SSW,195,6.0,21.0,36,0.00,,,0.00,meteohub,2013-11-14 21:03:00,
2013-11-14 15:08:00,53.2,27.0,-100.00,SW,217,14.0,20.0,36,0.00,,,0.00,meteohub,2013-11-14 21:08:00,
2013-11-14 15:13:00,53.8,27.5,-100.00,SSW,205,12.0,19.0,36,0.00,,,0.00,meteohub,2013-11-14 21:13:00,
2013-11-14 15:18:00,54.1,27.1,-100.00,SSW,200,5.0,19.0,35,0.00,,,0.00,meteohub,2013-11-14 21:18:00,
2013-11-14 15:23:00,54.1,27.1,-100.00,SSW,201,1.0,19.0,35,0.00,,,0.00,meteohub,2013-11-14 21:23:00,
2013-11-14 15:28:00,53.8,26.8,-100.00,South,176,2.0,19.0,35,0.00,,,0.00,meteohub,2013-11-14 21:28:00,
2013-11-14 15:33:00,53.2,27.0,-100.00,SSW,199,1.0,19.0,36,0.00,,,0.00,meteohub,2013-11-14 21:33:00,
2013-11-14 15:38:00,52.9,25.9,-100.00,SW,217,6.0,15.0,35,0.00,,,0.00,meteohub,2013-11-14 21:38:00,
2013-11-14 15:43:00,52.7,26.4,-100.00,SSW,196,1.0,20.0,36,0.00,,,0.00,meteohub,2013-11-14 21:43:00,
2013-11-14 15:48:00,52.3,26.2,-100.00,SSW,212,1.0,20.0,36,0.00,,,0.00,meteohub,2013-11-14 21:48:00,
2013-11-14 15:53:00,52.3,26.2,-100.00,SW,214,9.0,20.0,36,0.00,,,0.00,meteohub,2013-11-14 21:53:00,
2013-11-14 15:58:00,52.2,26.6,-100.00,SSW,211,1.0,16.0,37,0.00,,,0.00,meteohub,2013-11-14 21:58:00,
2013-11-14 16:03:00,52.0,26.6,-100.00,South,190,7.0,14.0,37,0.00,,,0.00,meteohub,2013-11-14 22:03:00,
2013-11-14 16:08:00,52.0,26.6,-100.00,South,180,2.0,12.0,37,0.00,,,0.00,meteohub,2013-11-14 22:08:00,
2013-11-14 16:13:00,51.8,27.0,-100.00,SSW,207,2.0,11.0,38,0.00,,,0.00,meteohub,2013-11-14 22:13:00,
2013-11-14 16:18:00,51.6,26.8,-100.00,SSW,209,1.0,11.0,38,0.00,,,0.00,meteohub,2013-11-14 22:18:00,
2013-11-14 16:23:00,51.4,26.1,-100.00,SSW,194,1.0,9.0,37,0.00,,,0.00,meteohub,2013-11-14 22:23:00,
2013-11-14 16:28:00,51.3,25.9,-100.00,SSW,203,2.0,9.0,37,0.00,,,0.00,meteohub,2013-11-14 22:28:00,
2013-11-14 16:33:00,51.3,25.9,-100.00,SSW,195,3.0,9.0,37,0.00,,,0.00,meteohub,2013-11-14 22:33:00,
2013-11-14 16:38:00,51.3,25.9,-100.00,SSW,207,0.0,8.0,37,0.00,,,0.00,meteohub,2013-11-14 22:38:00,
2013-11-14 16:43:00,51.1,25.7,-100.00,SW,222,2.0,7.0,37,0.00,,,0.00,meteohub,2013-11-14 22:43:00,
2013-11-14 16:48:00,50.5,25.9,-100.00,SSW,202,0.0,8.0,38,0.00,,,0.00,meteohub,2013-11-14 22:48:00,
2013-11-14 16:53:00,50.4,25.0,-100.00,South,186,1.0,8.0,37,0.00,,,0.00,meteohub,2013-11-14 22:53:00,
2013-11-14 16:58:00,50.4,25.0,-100.00,SSW,206,1.0,4.0,37,0.00,,,0.00,meteohub,2013-11-14 22:58:00,
2013-11-14 17:03:00,50.2,25.0,-100.00,South,190,0.0,10.0,37,0.00,,,0.00,meteohub,2013-11-14 23:03:00,
2013-11-14 17:08:00,49.8,25.2,-100.00,South,180,0.0,11.0,38,0.00,,,0.00,meteohub,2013-11-14 23:08:00,
2013-11-14 17:13:00,49.6,25.7,-100.00,SSW,203,1.0,11.0,39,0.00,,,0.00,meteohub,2013-11-14 23:13:00,
2013-11-14 17:18:00,49.1,25.9,-100.00,South,188,0.0,11.0,40,0.00,,,0.00,meteohub,2013-11-14 23:18:00,
2013-11-14 17:23:00,48.6,25.3,-100.00,SSW,204,0.0,9.0,40,0.00,,,0.00,meteohub,2013-11-14 23:23:00,
2013-11-14 17:28:00,48.6,25.3,-100.00,South,191,0.0,2.0,40,0.00,,,0.00,meteohub,2013-11-14 23:28:00,
2013-11-14 17:33:00,48.2,25.0,-100.00,South,190,0.0,2.0,40,0.00,,,0.00,meteohub,2013-11-14 23:33:00,
2013-11-14 17:38:00,47.8,24.6,-100.00,South,190,0.0,2.0,40,0.00,,,0.00,meteohub,2013-11-14 23:38:00,
2013-11-14 17:43:00,47.7,25.2,-100.00,South,190,0.0,1.0,41,0.00,,,0.00,meteohub,2013-11-14 23:43:00,
2013-11-14 17:48:00,47.5,25.0,-100.00,South,190,0.0,1.0,41,0.00,,,0.00,meteohub,2013-11-14 23:48:00,
2013-11-14 17:53:00,47.1,24.6,-100.00,South,190,0.0,1.0,41,0.00,,,0.00,meteohub,2013-11-14 23:53:00,
2013-11-14 17:58:00,46.9,24.4,-100.00,South,190,0.0,1.0,41,0.00,,,0.00,meteohub,2013-11-14 23:58:00,
2013-11-14 18:03:00,46.9,25.0,-100.00,South,190,0.0,1.0,42,0.00,,,0.00,meteohub,2013-11-15 00:03:00,
2013-11-14 18:08:00,46.8,24.8,-100.00,SSW,207,0.0,1.0,42,0.00,,,0.00,meteohub,2013-11-15 00:08:00,
2013-11-14 18:13:00,46.6,24.1,-100.00,SSW,207,0.0,1.0,41,0.00,,,0.00,meteohub,2013-11-15 00:13:00,
2013-11-14 18:18:00,46.0,24.3,-100.00,SSW,206,0.0,1.0,42,0.00,,,0.00,meteohub,2013-11-15 00:18:00,
2013-11-14 18:23:00,46.0,24.3,-100.00,SSW,207,0.0,1.0,42,0.00,,,0.00,meteohub,2013-11-15 00:23:00,
2013-11-14 18:28:00,46.0,24.3,-100.00,SSW,206,0.0,0.0,42,0.00,,,0.00,meteohub,2013-11-15 00:28:00,
2013-11-14 18:33:00,45.9,24.1,-100.00,SSW,205,0.0,0.0,42,0.00,,,0.00,meteohub,2013-11-15 00:33:00,
2013-11-14 18:38:00,45.9,24.1,-100.00,SSW,204,0.0,0.0,42,0.00,,,0.00,meteohub,2013-11-15 00:38:00,
2013-11-14 18:43:00,45.7,23.9,-100.00,SSW,204,0.0,0.0,42,0.00,,,0.00,meteohub,2013-11-15 00:43:00,
2013-11-14 18:48:00,45.3,24.1,-100.00,SSW,203,0.0,0.0,43,0.00,,,0.00,meteohub,2013-11-15 00:48:00,
2013-11-14 18:53:00,45.0,23.7,-100.00,SSW,203,0.0,0.0,43,0.00,,,0.00,meteohub,2013-11-15 00:53:00,
2013-11-14 18:58:00,44.8,23.7,-100.00,SSW,203,0.0,0.0,43,0.00,,,0.00,meteohub,2013-11-15 00:58:00,
2013-11-14 19:03:00,44.4,23.4,-100.00,SSW,203,0.0,0.0,43,0.00,,,0.00,meteohub,2013-11-15 01:03:00,
2013-11-14 19:08:00,44.4,23.4,-100.00,SSW,202,0.0,0.0,43,0.00,,,0.00,meteohub,2013-11-15 01:08:00,
2013-11-14 19:13:00,44.4,23.4,-100.00,SSW,202,0.0,1.0,43,0.00,,,0.00,meteohub,2013-11-15 01:13:00,
2013-11-14 19:18:00,44.4,23.9,-100.00,SSW,200,0.0,1.0,44,0.00,,,0.00,meteohub,2013-11-15 01:18:00,
2013-11-14 19:23:00,44.1,23.5,-100.00,SSW,192,0.0,1.0,44,0.00,,,0.00,meteohub,2013-11-15 01:23:00,
2013-11-14 19:28:00,43.7,23.7,-100.00,South,190,0.0,0.0,45,0.00,,,0.00,meteohub,2013-11-15 01:28:00,
2013-11-14 19:33:00,43.9,23.9,-100.00,South,177,0.0,0.0,45,0.00,,,0.00,meteohub,2013-11-15 01:33:00,
2013-11-14 19:38:00,44.4,23.9,-100.00,SSE,167,0.0,1.0,44,0.00,,,0.00,meteohub,2013-11-15 01:38:00,
2013-11-14 19:44:00,44.6,24.1,-100.00,SSE,163,0.0,2.0,44,0.00,,,0.00,meteohub,2013-11-15 01:44:00,
2013-11-14 19:49:00,44.4,23.4,-100.00,SSE,164,0.0,2.0,43,0.00,,,0.00,meteohub,2013-11-15 01:49:00,
2013-11-14 19:54:00,44.4,23.4,-100.00,SSE,165,0.0,2.0,43,0.00,,,0.00,meteohub,2013-11-15 01:54:00,
2013-11-14 19:59:00,44.4,22.8,-100.00,SSE,165,0.0,1.0,42,0.00,,,0.00,meteohub,2013-11-15 01:59:00,
2013-11-14 20:04:00,44.4,22.8,-100.00,SSE,164,0.0,1.0,42,0.00,,,0.00,meteohub,2013-11-15 02:04:00,
2013-11-14 20:09:00,44.4,22.8,-100.00,SSE,165,0.0,1.0,42,0.00,,,0.00,meteohub,2013-11-15 02:09:00,
2013-11-14 20:14:00,44.4,22.8,-100.00,SSE,165,0.0,1.0,42,0.00,,,0.00,meteohub,2013-11-15 02:14:00,
2013-11-14 20:19:00,44.2,22.6,-100.00,SSE,164,0.0,1.0,42,0.00,,,0.00,meteohub,2013-11-15 02:19:00,
2013-11-14 20:24:00,44.2,22.6,-100.00,SSE,164,0.0,1.0,42,0.00,,,0.00,meteohub,2013-11-15 02:24:00,
2013-11-14 20:29:00,44.1,22.5,-100.00,SSE,165,0.0,1.0,42,0.00,,,0.00,meteohub,2013-11-15 02:29:00,
2013-11-14 20:34:00,44.1,22.5,-100.00,SSE,165,0.0,1.0,42,0.00,,,0.00,meteohub,2013-11-15 02:34:00,
2013-11-14 20:39:00,44.1,23.0,-100.00,SSE,165,0.0,1.0,43,0.00,,,0.00,meteohub,2013-11-15 02:39:00,
2013-11-14 20:44:00,43.9,22.8,-100.00,SSE,165,0.0,1.0,43,0.00,,,0.00,meteohub,2013-11-15 02:44:00,
2013-11-14 20:49:00,43.9,22.8,-100.00,SSE,166,0.0,1.0,43,0.00,,,0.00,meteohub,2013-11-15 02:49:00,
2013-11-14 20:54:00,44.1,23.0,-100.00,SSE,165,0.0,0.0,43,0.00,,,0.00,meteohub,2013-11-15 02:54:00,
2013-11-14 20:59:00,44.2,22.6,-100.00,South,186,0.0,0.0,42,0.00,,,0.00,meteohub,2013-11-15 02:59:00,
2013-11-14 21:04:00,44.6,23.0,-100.00,SSW,213,1.0,1.0,42,0.00,,,0.00,meteohub,2013-11-15 03:04:00,
2013-11-14 21:09:00,45.0,23.2,-100.00,SSW,205,1.0,2.0,42,0.00,,,0.00,meteohub,2013-11-15 03:09:00,
2013-11-14 21:14:00,45.1,23.4,-100.00,SSW,205,1.0,4.0,42,0.00,,,0.00,meteohub,2013-11-15 03:14:00,
2013-11-14 21:19:00,45.3,23.5,-100.00,SSW,203,0.0,4.0,42,0.00,,,0.00,meteohub,2013-11-15 03:19:00,
2013-11-14 21:24:00,45.1,23.9,-100.00,SSW,200,0.0,4.0,43,0.00,,,0.00,meteohub,2013-11-15 03:24:00,
2013-11-14 21:29:00,44.8,23.7,-100.00,South,190,0.0,4.0,43,0.00,,,0.00,meteohub,2013-11-15 03:29:00,
2013-11-14 21:34:00,44.8,23.7,-100.00,SSW,199,0.0,4.0,43,0.00,,,0.00,meteohub,2013-11-15 03:34:00,
2013-11-14 21:39:00,44.8,23.7,-100.00,SSW,197,0.0,2.0,43,0.00,,,0.00,meteohub,2013-11-15 03:39:00,
2013-11-14 21:44:00,44.4,23.9,-100.00,SSW,194,0.0,2.0,44,0.00,,,0.00,meteohub,2013-11-15 03:44:00,
2013-11-14 21:49:00,44.4,23.9,-100.00,SSW,194,0.0,2.0,44,0.00,,,0.00,meteohub,2013-11-15 03:49:00,
2013-11-14 21:54:00,44.2,23.7,-100.00,SSW,192,0.0,2.0,44,0.00,,,0.00,meteohub,2013-11-15 03:54:00,
2013-11-14 21:59:00,44.1,24.1,-100.00,SSW,192,0.0,1.0,45,0.00,,,0.00,meteohub,2013-11-15 03:59:00,
2013-11-14 22:04:00,44.1,23.5,-100.00,SSW,192,0.0,1.0,44,0.00,,,0.00,meteohub,2013-11-15 04:04:00,
2013-11-14 22:09:00,44.1,24.1,-100.00,SSW,193,0.0,1.0,45,0.00,,,0.00,meteohub,2013-11-15 04:09:00,
2013-11-14 22:14:00,43.9,23.9,-100.00,SSW,192,0.0,1.0,45,0.00,,,0.00,meteohub,2013-11-15 04:14:00,
2013-11-14 22:19:00,43.5,23.5,-100.00,SSW,192,0.0,1.0,45,0.00,,,0.00,meteohub,2013-11-15 04:19:00,
2013-11-14 22:24:00,43.3,23.9,-100.00,SSW,192,0.0,1.0,46,0.00,,,0.00,meteohub,2013-11-15 04:24:00,
2013-11-14 22:29:00,43.3,23.9,-100.00,SSW,192,0.0,1.0,46,0.00,,,0.00,meteohub,2013-11-15 04:29:00,
2013-11-14 22:34:00,43.2,24.3,-100.00,SSW,192,0.0,1.0,47,0.00,,,0.00,meteohub,2013-11-15 04:34:00,
2013-11-14 22:39:00,43.2,23.7,-100.00,South,191,0.0,1.0,46,0.00,,,0.00,meteohub,2013-11-15 04:39:00,
2013-11-14 22:44:00,43.2,23.7,-100.00,SSW,192,0.0,1.0,46,0.00,,,0.00,meteohub,2013-11-15 04:44:00,
2013-11-14 22:49:00,43.2,23.7,-100.00,South,191,0.0,1.0,46,0.00,,,0.00,meteohub,2013-11-15 04:49:00,
2013-11-14 22:54:00,43.2,23.7,-100.00,South,191,0.0,1.0,46,0.00,,,0.00,meteohub,2013-11-15 04:54:00,
2013-11-14 22:59:00,43.2,24.3,-100.00,South,191,0.0,1.0,47,0.00,,,0.00,meteohub,2013-11-15 04:59:00,
2013-11-14 23:01:00,43.2,24.3,-100.00,SSW,192,0.0,1.0,47,0.00,,,0.00,meteohub,2013-11-15 05:01:00,
2013-11-14 23:02:00,43.2,24.3,-100.00,SSW,192,0.0,1.0,47,0.00,,,0.00,meteohub,2013-11-15 05:02:00,
2013-11-14 23:03:00,43.2,24.3,-100.00,SSW,192,0.0,1.0,47,0.00,,,0.00,meteohub,2013-11-15 05:03:00,
2013-11-14 23:08:00,43.2,24.3,-100.00,SSW,192,0.0,1.0,47,0.00,,,0.00,meteohub,2013-11-15 05:08:00,
2013-11-14 23:13:00,43.3,24.4,-100.00,South,191,0.0,1.0,47,0.00,,,0.00,meteohub,2013-11-15 05:13:00,
2013-11-14 23:18:00,43.3,24.4,-100.00,SSW,200,0.0,1.0,47,0.00,,,0.00,meteohub,2013-11-15 05:18:00,
2013-11-14 23:23:00,43.3,24.4,-100.00,SSW,199,0.0,1.0,47,0.00,,,0.00,meteohub,2013-11-15 05:23:00,
2013-11-14 23:28:00,43.3,25.0,-100.00,SSW,198,0.0,1.0,48,0.00,,,0.00,meteohub,2013-11-15 05:28:00,
2013-11-14 23:33:00,43.3,24.4,-100.00,SSW,200,0.0,1.0,47,0.00,,,0.00,meteohub,2013-11-15 05:33:00,
2013-11-14 23:38:00,43.3,24.4,-100.00,SSW,200,0.0,1.0,47,0.00,,,0.00,meteohub,2013-11-15 05:38:00,
2013-11-14 23:43:00,43.5,25.2,-100.00,SSW,199,0.0,2.0,48,0.00,,,0.00,meteohub,2013-11-15 05:43:00,
2013-11-14 23:48:00,43.5,25.2,-100.00,SSW,198,0.0,2.0,48,0.00,,,0.00,meteohub,2013-11-15 05:48:00,
2013-11-14 23:53:00,43.5,24.6,-100.00,SSW,204,0.0,2.0,47,0.00,,,0.00,meteohub,2013-11-15 05:53:00,
2013-11-14 23:58:00,43.5,25.2,-100.00,South,189,0.0,2.0,48,0.00,,,0.00,meteohub,2013-11-15 05:58:00,